| time (UTC) | temp C | wind direction | speed KPH | gust KPH | rain 1hr cm | rain 24hr cm | rain mn cm | humidity % | barometer mb |
| 20260505173003 | 7 | 323 | 0.0 | 16.1 | 0.00 | 0.00 | 0.20 | 91 | 1249.6 |
| 20260505171502 | 7 | 29 | 0.0 | 17.7 | 0.00 | 0.00 | 0.20 | 92 | 1249.6 |
| 20260505164502 | 7 | 353 | 0.0 | 12.9 | 0.03 | 0.00 | 0.20 | 94 | 1249.2 |
| 20260505163003 | 7 | 57 | 0.0 | 0.0 | 0.05 | 0.00 | 0.20 | 94 | 1249.2 |
| 20260505161503 | 7 | 15 | 0.0 | 0.0 | 0.05 | 0.00 | 0.20 | 95 | 1249.2 |
| 20260505153003 | 6 | 352 | 0.0 | 0.0 | 0.03 | 0.00 | 0.15 | 94 | 1249.2 |
| 20260505151503 | 6 | 23 | 0.0 | 0.0 | 0.05 | 0.00 | 0.15 | 95 | 1248.9 |
| 20260505150503 | 6 | 6 | 0.0 | 0.0 | 0.05 | 0.00 | 0.15 | 94 | 1249.2 |
| 20260505125003 | 5 | 2 | 0.0 | 1.6 | 0.05 | 0.00 | 0.10 | 93 | 1249.2 |
| 20260505121003 | 5 | 322 | 0.0 | 1.6 | 0.05 | 0.00 | 0.05 | 93 | 1249.9 |
| 20260505115503 | 6 | 338 | 0.0 | 16.1 | 0.05 | 0.00 | 0.05 | 92 | 1249.9 |
| 20260505114003 | 6 | 297 | 0.0 | 17.7 | 0.00 | 0.00 | 0.00 | 92 | 1250.3 |
| 20260505101003 | 7 | 332 | 0.0 | 0.0 | 0.00 | 0.00 | 0.00 | 82 | 1249.6 |
| 20260505095503 | 7 | 319 | 0.0 | 0.0 | 0.00 | 0.00 | 0.00 | 83 | 1249.9 |
| 20260505094003 | 7 | 27 | 0.0 | 0.0 | 0.00 | 0.00 | 0.00 | 83 | 1249.2 |
| 20260505093002 | 7 | 347 | 0.0 | 0.0 | 0.00 | 0.00 | 0.00 | 84 | 1249.2 |
| 20260505091503 | 7 | 340 | 0.0 | 0.0 | 0.00 | 0.00 | 0.00 | 85 | 1249.6 |
| 20260505090002 | 7 | 14 | 0.0 | 0.0 | 0.00 | 0.00 | 0.00 | 83 | 1249.6 |
| 20260505081503 | 7 | 335 | 0.0 | 0.0 | 0.00 | 0.00 | 0.00 | 82 | 1250.3 |
| 20260505071503 | 7 | 341 | 0.0 | 0.0 | 0.00 | 0.00 | 0.00 | 79 | 1250.3 |
| 20260505070003 | 7 | 353 | 0.0 | 0.0 | 0.00 | 0.00 | 0.00 | 79 | 1250.6 |
| 20260505063003 | 8 | 349 | 0.0 | 0.0 | 0.00 | 0.00 | 0.00 | 76 | 1250.6 |
| 20260505061503 | 8 | 347 | 0.0 | 0.0 | 0.00 | 0.00 | 0.00 | 75 | 1249.9 |
| 20260505060004 | 8 | 8 | 0.0 | 0.0 | 0.00 | 0.00 | 0.00 | 74 | 1250.3 |
| 20260505055503 | 8 | 7 | 0.0 | 1.6 | 0.00 | 0.00 | 0.00 | 74 | 1250.3 |
| 20260505054003 | 8 | 1 | 0.0 | 0.0 | 0.00 | 0.00 | 0.00 | 72 | 1250.9 |
| 20260505052003 | 9 | 320 | 0.0 | 0.0 | 0.00 | 0.00 | 0.00 | 70 | 1251.6 |
| 20260505050503 | 9 | 6 | 0.0 | 1.6 | 0.00 | 0.00 | 0.00 | 70 | 1251.6 |
| 20260505041004 | 10 | 316 | 1.6 | 8.0 | 0.00 | 0.00 | 0.00 | 68 | 1251.3 |
| 20260505035504 | 9 | 343 | 0.0 | 0.0 | 0.00 | 0.00 | 0.00 | 69 | 1251.6 |
| 20260505032504 | 10 | 297 | 0.0 | 0.0 | 0.00 | 0.00 | 0.00 | 67 | 1252.3 |
| 20260505031003 | 11 | 350 | 6.4 | 11.3 | 0.00 | 0.00 | 0.00 | 53 | 1251.6 |
| 20260505025503 | 11 | 313 | 4.8 | 11.3 | 0.00 | 0.00 | 0.00 | 50 | 1251.3 |
| 20260505024004 | 12 | 329 | 1.6 | 24.1 | 0.00 | 0.00 | 0.00 | 46 | 1250.9 |
| 20260505022503 | 13 | 319 | 12.9 | 12.9 | 0.00 | 0.00 | 0.00 | 41 | 1250.9 |
| 20260505021003 | 13 | 259 | 12.9 | 17.7 | 0.00 | 0.00 | 0.00 | 38 | 1250.6 |
| 20260505015503 | 13 | 351 | 6.4 | 19.3 | 0.00 | 0.00 | 0.00 | 35 | 1250.3 |
| 20260505012503 | 15 | 310 | 0.0 | 17.7 | 0.00 | 0.00 | 0.00 | 34 | 1249.9 |
| 20260505004502 | 16 | 341 | 1.6 | 14.5 | 0.00 | 0.00 | 0.00 | 26 | 1249.6 |
| 20260505003003 | 17 | 288 | 16.1 | 19.3 | 0.00 | 0.00 | 0.00 | 24 | 1249.6 |
| 20260505002002 | 17 | 161 | 0.0 | 19.3 | 0.00 | 0.00 | 0.00 | 24 | 1249.2 |
| 20260505000503 | 17 | 319 | 6.4 | 16.1 | 0.00 | 0.00 | 0.00 | 23 | 1249.6 |
| 20260504235004 | 17 | 305 | 11.3 | 14.5 | 0.00 | 0.00 | 0.00 | 22 | 1249.6 |
| 20260504233503 | 17 | 305 | 0.0 | 4.8 | 0.00 | 0.00 | 0.00 | 23 | 1249.6 |
| 20260504232002 | 18 | 316 | 0.0 | 14.5 | 0.00 | 0.00 | 0.00 | 23 | 1249.9 |
| 20260504230503 | 18 | 320 | 8.0 | 20.9 | 0.00 | 0.00 | 0.00 | 23 | 1249.6 |
| 20260504225003 | 20 | 5 | 0.0 | 11.3 | 0.00 | 0.00 | 0.00 | 22 | 1249.9 |
| 20260504223503 | 18 | 357 | 0.0 | 16.1 | 0.00 | 0.00 | 0.00 | 22 | 1249.9 |
| 20260504222003 | 18 | 308 | 14.5 | 17.7 | 0.00 | 0.00 | 0.00 | 23 | 1249.9 |
| 20260504213503 | 18 | 335 | 9.7 | 17.7 | 0.00 | 0.00 | 0.00 | 24 | 1250.6 |
| 20260504212002 | 18 | 312 | 11.3 | 17.7 | 0.00 | 0.00 | 0.00 | 23 | 1250.9 |
| 20260504210503 | 18 | 293 | 11.3 | 17.7 | 0.00 | 0.00 | 0.00 | 21 | 1250.9 |
| 20260504205003 | 18 | 320 | 11.3 | 14.5 | 0.00 | 0.00 | 0.00 | 22 | 1251.3 |
| 20260504203502 | 19 | 335 | 3.2 | 16.1 | 0.00 | 0.00 | 0.00 | 22 | 1251.3 |
| 20260504202003 | 18 | 347 | 9.7 | 9.7 | 0.00 | 0.00 | 0.00 | 22 | 1251.3 |
| 20260504200504 | 18 | 324 | 14.5 | 16.1 | 0.00 | 0.00 | 0.00 | 23 | 1251.6 |
| 20260504195003 | 18 | 295 | 14.5 | 22.5 | 0.00 | 0.00 | 0.00 | 22 | 1251.6 |
| 20260504194003 | 18 | 323 | 0.0 | 19.3 | 0.00 | 0.00 | 0.00 | 23 | 1251.3 |
| 20260504192503 | 17 | 320 | 4.8 | 14.5 | 0.00 | 0.00 | 0.00 | 23 | 1251.6 |
| 20260504191002 | 18 | 322 | 3.2 | 17.7 | 0.00 | 0.00 | 0.00 | 24 | 1251.9 |
| 20260504185503 | 18 | 300 | 6.4 | 11.3 | 0.00 | 0.00 | 0.00 | 25 | 1251.9 |
| 20260504184003 | 18 | 302 | 17.7 | 17.7 | 0.00 | 0.00 | 0.00 | 23 | 1252.3 |
| 20260504182503 | 17 | 353 | 0.0 | 0.0 | 0.00 | 0.00 | 0.00 | 26 | 1251.9 |
| 20260504175003 | 16 | 3 | 8.0 | 16.1 | 0.00 | 0.00 | 0.00 | 27 | 1252.3 |